Regional Weather Roundup
Issued by NWS

Home | Current Version | Previous Version | Text Only | Print | Product List | Glossary On
Versions: 1 2 3 4 5 6 7 8 9 10 11 12 13 14 15 16 17 18 19 20 21 22 23 24 25 26 27 28 29 30 31 32 33 34 35 36 37 38 39 40 41 42 43 44 45 46 47 48 49 50
000
ASUS43 KLSX 262007
RWRMO

WEATHER SUMMARY FOR MISSOURI
NATIONAL WEATHER SERVICE SPRINGFIELD MO
300 PM CDT TUE SEP 26 2017

NOTE: "FAIR" INDICATES FEW OR NO CLOUDS BELOW 12,000 FEET WITH NO
       SIGNIFICANT WEATHER AND/OR OBSTRUCTIONS TO VISIBILITY.
       CURRENT SKY AND/OR WEATHER CONDITIONS ARE NOT AVAILABLE FOR
       CHILLICOTHE AND FARMINGTON.

MOZ001>031-035>038-043-044-053-054-262100-
...NORTHERN AND WESTERN MISSOURI...

CITY           SKY/WX    TMP DP  RH WIND       PRES   REMARKS
KANSAS CTY INT CLOUDY    66  60  81 NW8       30.08S
KANSAS C DTWN  CLOUDY    68  62  81 NW8       30.07R
LEE`S SUMMIT   CLOUDY    69  63  81 NW12      30.07R
ST JOSEPH      CLOUDY    66  58  75 NW10      30.09R
CHILLICOTHE      N/A     71  64  78 VRB6      30.06S
KIRKSVILLE     CLOUDY    76  64  66 W10       30.03R

$$
MOZ066>068-077>081-088>096-101>105-262100-
...SOUTHWEST MISSOURI...

CITY           SKY/WX    TMP DP  RH WIND       PRES   REMARKS
SPRINGFIELD    MOSUNNY   85  67  54 NW7       30.00F
JOPLIN         CLOUDY    74  69  85 NW14      30.03F
BRANSON        PTSUNNY   84  63  48 SE5       30.00F

$$
MOZ032>034-039>042-045>050-055>058-069>072-262100-
...CENTRAL MISSOURI...

CITY           SKY/WX    TMP DP  RH WIND       PRES   REMARKS
COLUMBIA       CLOUDY    83  66  56 SW8       29.99S
JEFFERSON CITY SUNNY     85  65  51 CALM      29.96F
ROLLA          MOSUNNY   85  65  51 W5        29.98F
SEDALIA        CLOUDY    80  65  59 NW7       30.03S
WHITEMAN AFB   PTSUNNY   77  64  65 NW9       30.01F
WARRENSBURG    CLOUDY    73  63  68 NW7       30.03
OSAGE BEACH    SUNNY     84  68  58 SW9       29.99F

$$
MOZ051-052-059>065-262100-
...EAST CENTRAL MISSOURI...

CITY           SKY/WX    TMP DP  RH WIND       PRES   REMARKS
ST LOUIS INTL  MOSUNNY   91  61  36 S5        29.94F HX  91
SPIRIT OF STL  MOSUNNY   90  65  43 VRB6      29.93F HX  92
ST CHARLES     PTSUNNY   91  60  35 W8        29.92F HX  90

$$
MOZ072>076-082>087-097>100-106>115-262100-
...SOUTH CENTRAL AND SOUTHEAST MISSOURI...

CITY           SKY/WX    TMP DP  RH WIND       PRES   REMARKS
CAPE GIRARDEAU MOSUNNY   87  63  44 N5        29.94F
FARMINGTON     MOSUNNY   88  62  41 SE6       29.97
POPLAR BLUFF   SUNNY     91  61  36 CALM      29.93F HX  91
WEST PLAINS    MOSUNNY   88  59  37 CALM      29.99F

$$



USA.gov is the U.S. government's official web portal to all federal, state and local government web resources and services.